Location: Bakhuizen
(52.8696°N, 5.4575°E)
Time: 09:08:01
(UTC+00:00)

Cosmos 1378 - Pass Details

Date: 11 May 2021
Orbit: 491 x 499 km, 82.5° (Epoch: 15 June)

Event Time Altitude Azimuth Distance (km) Brightness Sun altitude
Exits shadow 23:34:56 52° 144° (SE) 625 3.2 -19.0°
Maximum altitude 23:35:33 62° 97° (E) 564 3.2 -19.0°
Drops below altitude 10° 23:39:15 10° 17° (NNE) 1,708 7.0 -19.0°
Sets 23:41:23 0° 14° (NNE) 2,597 8.3 -19.0°
